User: anonymous   Login
Location: Dappach
(48.9767°N, 9.6998°E)
Time: 11:40:03
(UTC+00:00)
Language:

BREEZE-M DEB (TANK) - Orbit

View from above orbital plane
View from above orbital plane
View from above satellite
View from above satellite

Ground track
Ground track

The orbit data is extracted from the following two-line orbital elements,

1 37828U 11054C   24205.83682789  .00010227  00000-0  16070-2 0  9991
2 37828  49.4114  85.4025 5549418 118.8090 307.4242  4.74121811214761
Epoch (UTC): 23 July 2024 20:05:01
Eccentricity: 0.5549418
inclination: 49.4114°
perigee height: 283 km
apogee height: 16895 km
right ascension of ascending node: 85.4025°
argument of perigee: 118.8090°
revolutions per day: 4.74121811
mean anomaly at epoch: 307.4242°
orbit number at epoch: 21476

The dashed part of the orbit path shows where the satellite is in the earth's shadow,  

DLR